• In Hungary
  • List of Countries
  • For 7 days
  • Water Temperature
  • Satellite Maps
  • Weather Map
  • News
  • Weather Widgets
  • user-avatar
    Login

    Hourly Weather Michalczowa

    Today, 18 November, Saturday

    Time Temperature Precipitation Wind Pressure Humidity
    00:00 +3°C° 0.2 mm 1 mps 733 mmHg 94%
    01:00 +3°C° 0 mm 1 mps 733 mmHg 94%
    02:00 +3°C° 0.2 mm 1 mps 732 mmHg 95%
    03:00 +3°C° 0.2 mm 1 mps 732 mmHg 95%
    04:00 +3°C° 0.2 mm 1 mps 732 mmHg 96%
    05:00 +3°C° 0.1 mm 1 mps 732 mmHg 96%
    06:00 +3°C° 0.1 mm 1 mps 732 mmHg 96%
    07:00 +3°C° 0 mm 1 mps 731 mmHg 95%
    08:00 +4°C° 0.1 mm 1 mps 731 mmHg 92%
    09:00 +4°C° 0.1 mm 1 mps 731 mmHg 89%
    10:00 +5°C° 0.1 mm 1 mps 731 mmHg 86%
    11:00 +5°C° 0 mm 1 mps 731 mmHg 83%
    12:00 +5°C° 0 mm 1 mps 730 mmHg 81%
    13:00 +5°C° 0 mm 1 mps 730 mmHg 79%
    14:00 +5°C° 0 mm 1 mps 730 mmHg 81%
    15:00 +4°C° 0 mm 1 mps 729 mmHg 83%
    16:00 +4°C° 0 mm 1 mps 729 mmHg 86%
    17:00 +3°C° 0 mm 1 mps 728 mmHg 87%
    18:00 +1°C° 0 mm 2 mps 728 mmHg 88%
    19:00 +1°C° 0 mm 2 mps 728 mmHg 89%
    20:00 +1°C° 0 mm 2 mps 727 mmHg 88%
    21:00 +1°C° 0 mm 2 mps 727 mmHg 87%
    22:00 0°C° 0 mm 3 mps 727 mmHg 86%
    23:00 0°C° 0 mm 3 mps 726 mmHg 85%

    Tomorrow, 19 November, Sunday

    Time Temperature Precipitation Wind Pressure Humidity
    00:00 0°C° 0 mm 3 mps 726 mmHg 84%
    01:00 0°C° 0 mm 3 mps 725 mmHg 84%
    02:00 0°C° 0.1 mm 3 mps 725 mmHg 84%
    03:00 0°C° 0.1 mm 3 mps 725 mmHg 85%
    04:00 0°C° 0.1 mm 3 mps 724 mmHg 86%
    05:00 0°C° 0.1 mm 3 mps 724 mmHg 87%
    06:00 0°C° 0.1 mm 3 mps 724 mmHg 88%
    07:00 0°C° 0.1 mm 3 mps 724 mmHg 88%
    08:00 +1°C° 0 mm 3 mps 724 mmHg 83%
    09:00 +1°C° 0 mm 4 mps 725 mmHg 78%
    10:00 +3°C° 0 mm 4 mps 725 mmHg 73%
    11:00 +3°C° 0 mm 4 mps 725 mmHg 70%
    12:00 +3°C° 0 mm 4 mps 724 mmHg 67%
    13:00 +4°C° 0 mm 4 mps 724 mmHg 64%
    14:00 +3°C° 0 mm 4 mps 724 mmHg 69%
    15:00 +2°C° 0 mm 3 mps 724 mmHg 74%
    16:00 0°C° 0 mm 3 mps 724 mmHg 78%
    17:00 0°C° 0 mm 3 mps 724 mmHg 79%
    18:00 0°C° 0 mm 3 mps 724 mmHg 80%
    19:00 0°C° 0 mm 3 mps 723 mmHg 81%
    20:00 -1°C° 0.1 mm 4 mps 724 mmHg 82%
    21:00 -1°C° 0.1 mm 4 mps 724 mmHg 82%
    22:00 -1°C° 0.1 mm 4 mps 724 mmHg 82%
    23:00 -1°C° 0.1 mm 4 mps 724 mmHg 84%

    Day after tomorrow, 20 November, Monday

    Time Temperature Precipitation Wind Pressure Humidity
    00:00 -1°C° 0.1 mm 4 mps 724 mmHg 85%
    01:00 0°C° 0.1 mm 3 mps 724 mmHg 86%
    02:00 -1°C° 0.1 mm 4 mps 724 mmHg 86%
    03:00 -1°C° 0.1 mm 4 mps 724 mmHg 85%
    04:00 -1°C° 0.1 mm 4 mps 724 mmHg 85%
    05:00 -1°C° 0.4 mm 5 mps 724 mmHg 85%
    06:00 -1°C° 0.4 mm 5 mps 724 mmHg 85%
    07:00 -2°C° 0.4 mm 6 mps 724 mmHg 85%
    08:00 -2°C° 0.3 mm 6 mps 725 mmHg 85%
    09:00 -2°C° 0.3 mm 6 mps 725 mmHg 85%
    10:00 -2°C° 0.3 mm 6 mps 726 mmHg 85%
    11:00 -1°C° 0.4 mm 6 mps 726 mmHg 83%
    12:00 -1°C° 0.4 mm 6 mps 726 mmHg 82%
    13:00 -1°C° 0.4 mm 7 mps 727 mmHg 81%
    14:00 -2°C° 0 mm 6 mps 727 mmHg 82%
    15:00 -2°C° 0 mm 5 mps 727 mmHg 83%
    16:00 -1°C° 0 mm 3 mps 727 mmHg 85%
    17:00 -1°C° 0 mm 3 mps 728 mmHg 86%
    18:00 -2°C° 0 mm 3 mps 728 mmHg 87%
    19:00 -2°C° 0 mm 2 mps 728 mmHg 88%
    20:00 -2°C° 0 mm 2 mps 728 mmHg 88%
    21:00 -1°C° 0 mm 2 mps 728 mmHg 88%
    22:00 -1°C° 0 mm 2 mps 728 mmHg 89%
    23:00 -1°C° 0.1 mm 2 mps 728 mmHg 89%

    21 November, Tuesday

    Time Temperature Precipitation Wind Pressure Humidity
    00:00 -1°C° 0.1 mm 2 mps 728 mmHg 88%
    01:00 -1°C° 0.1 mm 2 mps 727 mmHg 88%
    02:00 -1°C° 0.2 mm 2 mps 727 mmHg 88%
    03:00 -1°C° 0.2 mm 2 mps 726 mmHg 88%
    04:00 -1°C° 0.2 mm 2 mps 725 mmHg 88%
    05:00 -1°C° 0.6 mm 2 mps 725 mmHg 90%
    06:00 -1°C° 0.6 mm 2 mps 724 mmHg 91%
    07:00 -1°C° 0.6 mm 2 mps 724 mmHg 93%
    08:00 +1°C° 0.4 mm 2 mps 724 mmHg 94%
    09:00 +2°C° 0.4 mm 1 mps 724 mmHg 94%
    10:00 +3°C° 0.4 mm 1 mps 724 mmHg 95%
    11:00 +3°C° 0.1 mm 1 mps 724 mmHg 95%
    12:00 +4°C° 0.1 mm 1 mps 724 mmHg 95%
    13:00 +4°C° 0.1 mm 1 mps 725 mmHg 96%
    14:00 +4°C° 0 mm 1 mps 725 mmHg 96%
    15:00 +3°C° 0 mm 1 mps 725 mmHg 96%
    16:00 +3°C° 0 mm 1 mps 726 mmHg 97%
    17:00 +3°C° 0 mm 1 mps 726 mmHg 97%
    18:00 +3°C° 0 mm 1 mps 726 mmHg 97%
    19:00 +2°C° 0 mm 0 mps 727 mmHg 97%
    20:00 +1°C° 0 mm 0 mps 727 mmHg 97%
    21:00 +1°C° 0 mm 0 mps 727 mmHg 97%
    22:00 +1°C° 0 mm 0 mps 728 mmHg 96%
    23:00 +1°C° 0 mm 0 mps 728 mmHg 96%

    22 November, Wednesday

    Time Temperature Precipitation Wind Pressure Humidity
    00:00 +1°C° 0 mm 0 mps 728 mmHg 96%
    01:00 0°C° 0 mm 0 mps 728 mmHg 95%
    02:00 0°C° 0 mm 0 mps 729 mmHg 95%
    03:00 0°C° 0 mm 0 mps 729 mmHg 95%
    04:00 -1°C° 0 mm 0 mps 729 mmHg 94%
    05:00 -1°C° 0 mm 0 mps 729 mmHg 94%
    06:00 0°C° 0 mm 1 mps 729 mmHg 94%
    07:00 0°C° 0 mm 1 mps 730 mmHg 93%
    08:00 +1°C° 0 mm 1 mps 730 mmHg 92%
    09:00 +3°C° 0 mm 1 mps 730 mmHg 91%
    10:00 +3°C° 0 mm 2 mps 731 mmHg 90%
    11:00 +4°C° 0 mm 2 mps 730 mmHg 90%
    12:00 +4°C° 0 mm 2 mps 730 mmHg 91%
    13:00 +5°C° 0 mm 2 mps 730 mmHg 91%
    14:00 +4°C° 0 mm 2 mps 730 mmHg 92%
    15:00 +4°C° 0 mm 2 mps 730 mmHg 93%
    16:00 +3°C° 0 mm 2 mps 730 mmHg 93%
    17:00 +3°C° 0 mm 2 mps 730 mmHg 93%
    18:00 +2°C° 0 mm 3 mps 730 mmHg 93%
    19:00 +2°C° 0 mm 3 mps 730 mmHg 93%
    20:00 +2°C° 0 mm 3 mps 731 mmHg 92%
    21:00 +3°C° 0 mm 2 mps 731 mmHg 92%
    22:00 +3°C° 0 mm 2 mps 731 mmHg 91%
    23:00 +3°C° 0 mm 2 mps 731 mmHg 91%

    23 November, Thursday

    Time Temperature Precipitation Wind Pressure Humidity
    00:00 +2°C° 0 mm 2 mps 731 mmHg 90%
    01:00 +2°C° 0 mm 2 mps 731 mmHg 90%
    02:00 +2°C° 0 mm 2 mps 731 mmHg 89%
    03:00 +2°C° 0 mm 2 mps 731 mmHg 89%
    04:00 +2°C° 0 mm 2 mps 731 mmHg 88%
    05:00 +2°C° 0 mm 2 mps 731 mmHg 88%
    06:00 +2°C° 0 mm 2 mps 732 mmHg 87%
    07:00 +2°C° 0 mm 2 mps 732 mmHg 86%
    08:00 +3°C° 0 mm 2 mps 732 mmHg 85%
    09:00 +5°C° 0 mm 2 mps 732 mmHg 84%
    10:00 +6°C° 0 mm 2 mps 733 mmHg 83%
    11:00 +6°C° 0 mm 2 mps 733 mmHg 83%
    12:00 +7°C° 0 mm 2 mps 732 mmHg 83%
    13:00 +8°C° 0 mm 2 mps 732 mmHg 82%
    14:00 +7°C° 0 mm 2 mps 732 mmHg 84%
    15:00 +6°C° 0 mm 2 mps 732 mmHg 86%
    16:00 +5°C° 0 mm 2 mps 732 mmHg 88%
    17:00 +4°C° 0 mm 2 mps 733 mmHg 88%
    18:00 +4°C° 0 mm 2 mps 733 mmHg 88%
    19:00 +4°C° 0 mm 2 mps 733 mmHg 88%
    20:00 +3°C° 0 mm 2 mps 733 mmHg 88%
    21:00 +3°C° 0 mm 2 mps 734 mmHg 89%
    22:00 +3°C° 0 mm 2 mps 734 mmHg 89%
    23:00 +3°C° 0 mm 2 mps 734 mmHg 89%
    Show more